Location: Fort Worth, Tx
(32.7431°N, 97.3695°W)
Time: 10:33:06
(UTC-04:00)

A-11 Canister half - Pass Details

Date: 15 August 2024
Orbit: 1524 x 1684 km, 47.3° (Epoch: 13 September)

Event Time Altitude Azimuth Distance (km) Brightness Sun altitude
Rises 02:06:03 0° 268° (W) 4,904 11.7 -42.9°
Reaches altitude 10° 02:09:29 10° 276° (W) 3,929 11.2 -43.0°
Maximum altitude 02:18:53 41° 344° (NNW) 2,288 10.1 -43.2°
Drops below altitude 10° 02:28:19 10° 52° (NE) 3,935 11.4 -43.4°
Sets 02:31:47 0° 60° (ENE) 4,911 11.9 -43.4°
